Weather History for Algona, IA

Change the Weather History Date:

Thursday, March 20, 2014

  Actual Average Record
Temperature  
Mean Temperature 39 °F -  
Max Temperature 50 °F 39 °F 62 °F (2012)
Min Temperature 28 °F 24 °F 10 °F (2005)
Degree Days  
Heating Degree Days 26    
Moisture  
Dew Point 32 °F    
Average Humidity 79    
Maximum Humidity 100    
Minimum Humidity 50    
Precipitation  
Precipitation 0.00 in - - ()
Sea Level Pressure  
Sea Level Pressure 29.97 in    
Wind  
Wind Speed 5 mph (SE)    
Max Wind Speed 13 mph    
Max Gust Speed 18 mph    
Visibility 8 miles    
Events      
Averages and records for this station are not official NWS values.
T = Trace of Precipitation, MM = Missing Value Source: NWS Daily Summary

Daily Weather History Graph

Daily Weather History Graph

Search for Another Location

Airport:

Trip Planner

Search our weather history database for the weather conditions in past years. The results will help you decide how hot, cold, wet, or windy it might be!

Date:

Astronomy

Mar. 20, 2014 Rise Set
Actual Time 7:20 AM CDT 7:29 PM CDT
Civil Twilight 6:51 AM CDT 7:57 PM CDT
Nautical Twilight 6:18 AM CDT 8:31 PM CDT
Astronomical Twilight 5:44 AM CDT 9:05 PM CDT
Moon 11:56 PM CDT (3/20) 9:21 AM CDT (3/20)
Length of Visible Light 13h 05m
Length of Day
12h 09m
Waning Gibbous, 84% of the Moon is Illuminated
Mar 20
Waning Gibbous
Mar 23
Last Quarter
Mar 30
New
Apr 7
First Quarter
Apr 15
Full

Hourly Weather History & Observations

Time (CDT) Temp. Windchill Dew Point Humidity Pressure Visibility Wind Dir Wind Speed Gust Speed Precip Events Conditions
12:15 AM 35.6 °F 31.7 °F 30.2 °F 81% 30.00 in 10.0 mi NW 4.6 mph - N/A   Overcast
12:35 AM 33.8 °F 29.6 °F 30.2 °F 87% 30.00 in 10.0 mi WNW 4.6 mph - N/A   Overcast
1:15 AM 35.6 °F 30.7 °F 32.0 °F 87% 30.00 in 10.0 mi NW 5.8 mph - N/A   Overcast
1:35 AM 33.8 °F 29.6 °F 32.0 °F 93% 30.00 in 10.0 mi NW 4.6 mph - N/A   Scattered Clouds
1:55 AM 32.0 °F 25.6 °F 30.2 °F 93% 30.00 in 9.0 mi WNW 6.9 mph - N/A   Clear
2:15 AM 30.2 °F 25.4 °F 30.2 °F 100% 30.00 in 7.0 mi West 4.6 mph - N/A   Partly Cloudy
2:35 AM 32.0 °F 27.5 °F 32.0 °F 100% 30.00 in 10.0 mi North 4.6 mph - N/A   Mostly Cloudy
2:55 AM 32.0 °F 27.5 °F 30.2 °F 93% 30.00 in 10.0 mi NNE 4.6 mph - N/A   Scattered Clouds
3:15 AM 32.0 °F - 30.2 °F 93% 30.01 in 10.0 mi Calm Calm - N/A   Scattered Clouds
3:35 AM 32.0 °F - 30.2 °F 93% 30.01 in 9.0 mi Calm Calm - N/A   Mostly Cloudy
3:55 AM 32.0 °F - 30.2 °F 93% 30.01 in 10.0 mi Calm Calm - N/A   Mostly Cloudy
4:15 AM 30.2 °F 26.7 °F 30.2 °F 100% 30.01 in 6.0 mi SW 3.5 mph - N/A   Clear
4:35 AM 30.2 °F - 30.2 °F 100% 30.02 in 5.0 mi Calm Calm - N/A   Clear
4:55 AM 30.2 °F - 30.2 °F 100% 30.02 in 2.5 mi Calm Calm - N/A   Clear
5:15 AM 30.2 °F - 30.2 °F 100% 30.02 in 2.5 mi Calm Calm - N/A   Clear
5:35 AM 30.2 °F - 30.2 °F 100% 30.02 in 4.0 mi Calm Calm - N/A   Clear
5:55 AM 30.2 °F - 30.2 °F 100% 30.02 in 5.0 mi Calm Calm - N/A   Clear
6:15 AM 28.4 °F - 28.4 °F 100% 30.02 in 2.0 mi Calm Calm - N/A   Clear
6:35 AM 28.4 °F - 28.4 °F 100% 30.02 in 2.0 mi Calm Calm - N/A   Clear
6:55 AM 28.4 °F - 28.4 °F 100% 30.02 in 4.0 mi Calm Calm - N/A   Clear
7:15 AM 28.4 °F - 28.4 °F 100% 30.02 in 5.0 mi Calm Calm - N/A   Clear
7:35 AM 28.4 °F 24.6 °F 28.4 °F 100% 30.02 in 4.0 mi SSW 3.5 mph - N/A   Clear
7:55 AM 28.4 °F 24.6 °F 28.4 °F 100% 30.02 in 1.5 mi SSW 3.5 mph - N/A   Clear
8:15 AM 30.2 °F - 30.2 °F 100% 30.02 in 2.5 mi Calm Calm - N/A   Clear
8:35 AM 30.2 °F - 30.2 °F 100% 30.02 in 2.5 mi Calm Calm - N/A   Clear
8:55 AM 32.0 °F - 30.2 °F 93% 30.02 in 4.0 mi Calm Calm - N/A   Clear
9:15 AM 32.0 °F 28.7 °F 32.0 °F 100% 30.02 in 4.0 mi SSE 3.5 mph - N/A   Clear
9:35 AM 32.0 °F 28.7 °F 32.0 °F 100% 30.02 in 6.0 mi SE 3.5 mph - N/A   Clear
9:55 AM 33.8 °F 29.6 °F 33.8 °F 100% 30.02 in 7.0 mi SE 4.6 mph - N/A   Clear
10:15 AM 35.6 °F 30.7 °F 33.8 °F 93% 30.01 in 9.0 mi SE 5.8 mph - N/A   Clear
10:35 AM 37.4 °F 31.4 °F 32.0 °F 81% 30.01 in 10.0 mi SE 8.1 mph - N/A   Clear
10:55 AM 39.2 °F 34.2 °F 33.8 °F 81% 30.01 in 10.0 mi SE 6.9 mph - N/A   Mostly Cloudy
11:15 AM 39.2 °F 35.0 °F 33.8 °F 81% 30.01 in 10.0 mi SSE 5.8 mph - N/A   Scattered Clouds
11:35 AM 41.0 °F 37.1 °F 33.8 °F 76% 30.00 in 10.0 mi Variable 5.8 mph - N/A   Clear
11:55 AM 41.0 °F 35.2 °F 33.8 °F 76% 30.00 in 10.0 mi South 9.2 mph - N/A   Clear
12:15 PM 42.8 °F 38.6 °F 32.0 °F 66% 29.99 in 10.0 mi SSE 6.9 mph - N/A   Clear
12:35 PM 42.8 °F 37.0 °F 32.0 °F 66% 29.99 in 10.0 mi South 10.4 mph - N/A   Clear
12:55 PM 44.6 °F 39.7 °F 32.0 °F 61% 29.98 in 10.0 mi SSE 9.2 mph - N/A   Clear
1:15 PM 46.4 °F 42.4 °F 33.8 °F 62% 29.97 in 10.0 mi South 8.1 mph - N/A   Partly Cloudy
1:35 PM 46.4 °F 42.9 °F 32.0 °F 57% 29.97 in 10.0 mi SSE 6.9 mph 13.8 mph N/A   Clear
1:55 PM 46.4 °F 41.9 °F 32.0 °F 57% 29.96 in 10.0 mi SSE 9.2 mph - N/A   Clear
2:15 PM 46.4 °F 42.9 °F 32.0 °F 57% 29.95 in 10.0 mi SE 6.9 mph - N/A   Clear
2:35 PM 48.2 °F - 33.8 °F 58% 29.94 in 10.0 mi SSE 8.1 mph 15.0 mph N/A   Clear
2:55 PM 48.2 °F - 30.2 °F 50% 29.93 in 10.0 mi South 10.4 mph - N/A   Clear
3:15 PM 48.2 °F - 32.0 °F 54% 29.93 in 10.0 mi South 5.8 mph 12.7 mph N/A   Clear
3:35 PM 48.2 °F - 33.8 °F 58% 29.92 in 10.0 mi SSE 9.2 mph 16.1 mph N/A   Clear
3:55 PM 48.2 °F - 32.0 °F 54% 29.92 in 10.0 mi SE 5.8 mph 13.8 mph N/A   Clear
4:15 PM 48.2 °F - 32.0 °F 54% 29.92 in 10.0 mi SE 9.2 mph - N/A   Clear
4:35 PM 50.0 °F - 32.0 °F 50% 29.91 in 10.0 mi SE 9.2 mph - N/A   Clear
4:55 PM 50.0 °F - 32.0 °F 50% 29.91 in 10.0 mi ESE 9.2 mph - N/A   Clear
5:15 PM 50.0 °F - 33.8 °F 54% 29.91 in 10.0 mi ESE 9.2 mph - N/A   Clear
5:35 PM 48.2 °F - 33.8 °F 58% 29.91 in 10.0 mi SE 11.5 mph - N/A   Clear
5:55 PM 48.2 °F - 32.0 °F 54% 29.91 in 10.0 mi SSE 11.5 mph - N/A   Clear
6:15 PM 48.2 °F - 33.8 °F 58% 29.92 in 10.0 mi SSE 11.5 mph - N/A   Clear
6:35 PM 48.2 °F - 33.8 °F 58% 29.92 in 10.0 mi SSE 12.7 mph - N/A   Clear
6:55 PM 46.4 °F 41.9 °F 33.8 °F 62% 29.92 in 10.0 mi SE 9.2 mph - N/A   Clear
7:15 PM 46.4 °F 41.5 °F 33.8 °F 62% 29.91 in 10.0 mi SE 10.4 mph - N/A   Clear
7:35 PM 44.6 °F 39.7 °F 33.8 °F 66% 29.91 in 10.0 mi SE 9.2 mph - N/A   Clear
7:55 PM 42.8 °F 37.5 °F 33.8 °F 70% 29.90 in 10.0 mi SE 9.2 mph - N/A   Clear
8:15 PM 42.8 °F 37.5 °F 33.8 °F 70% 29.90 in 10.0 mi SE 9.2 mph - N/A   Clear
8:35 PM 42.8 °F 37.0 °F 32.0 °F 66% 29.91 in 10.0 mi ESE 10.4 mph - N/A   Clear
8:55 PM 41.0 °F 34.7 °F 33.8 °F 76% 29.91 in 10.0 mi ESE 10.4 mph - N/A   Clear
9:15 PM 41.0 °F 34.7 °F 33.8 °F 76% 29.90 in 10.0 mi ESE 10.4 mph - N/A   Clear
9:35 PM 41.0 °F 34.7 °F 32.0 °F 70% 29.90 in 10.0 mi ESE 10.4 mph - N/A   Clear
9:55 PM 39.2 °F 32.0 °F 32.0 °F 75% 29.90 in 10.0 mi SE 11.5 mph - N/A   Clear
10:15 PM 39.2 °F 32.0 °F 32.0 °F 75% 29.90 in 10.0 mi SE 11.5 mph - N/A   Clear
10:35 PM 37.4 °F 29.3 °F 32.0 °F 81% 29.89 in 10.0 mi SE 12.7 mph - N/A   Clear
10:55 PM 37.4 °F 29.8 °F 30.2 °F 75% 29.89 in 10.0 mi SE 11.5 mph 18.4 mph N/A   Clear
11:15 PM 37.4 °F 29.3 °F 30.2 °F 75% 29.89 in 10.0 mi SE 12.7 mph - N/A   Clear
11:35 PM 37.4 °F 29.8 °F 30.2 °F 75% 29.89 in 10.0 mi SE 11.5 mph 17.3 mph N/A   Clear
11:55 PM 35.6 °F 28.0 °F 30.2 °F 81% 29.88 in 10.0 mi SE 10.4 mph - N/A   Clear